Wind_Speed
41 41 41 39 39 38 38 38 37 37 36 37 37 38 39 40 41 42 43 45 46 48 49 51 52 53 54 55 56 56 55 54 54 53 52 52 51 49
41 41 41 39 38 37 37 37 36 37 37 37 37 38 39 40 41 42 44 45 46 48 50 51 52 53 54 54 55 55 54 53 52 52 52 51 50 50
42 42 41 39 37 37 37 36 36 37 37 36 36 37 39 41 41 42 43 45 46 48 49 51 52 52 52 53 54 53 52 51 51 51 51 50 50 50
40 40 39 37 36 36 36 35 36 36 36 36 36 37 39 40 41 42 43 45 46 48 49 50 51 51 51 52 51 51 50 50 50 50 51 50 50 51
39 39 38 36 36 36 35 35 35 36 36 36 36 37 39 40 40 41 43 44 46 47 49 49 50 50 50 50 49 49 49 49 50 50 50 50 51 50
38 38 37 36 36 36 35 35 35 36 36 36 36 37 38 39 40 41 42 44 45 47 48 48 48 48 47 47 48 48 48 49 49 50 50 50 50 49
38 37 36 36 36 36 36 35 35 35 35 36 37 37 37 38 39 40 42 43 45 46 47 47 46 46 45 45 47 48 48 49 49 50 50 49 48 46
38 37 36 35 36 36 36 36 35 35 36 36 36 36 37 38 39 41 43 43 43 44 45 45 44 44 44 45 46 47 48 48 48 48 48 47 46 44
38 37 36 36 36 36 36 35 35 35 35 34 34 35 36 37 39 40 41 41 41 42 43 43 42 43 44 45 46 47 47 47 47 47 46 45 44 42
38 36 36 36 35 35 34 34 34 34 33 33 33 34 36 37 38 39 39 39 39 41 42 41 41 42 43 44 46 47 48 47 46 45 44 44 43 41
39 37 37 36 36 35 35 34 33 32 32 33 34 35 36 37 37 37 37 37 39 39 39 39 40 41 44 46 46 47 47 46 45 43 43 43 41 40
39 37 36 35 35 34 34 34 33 33 33 34 34 35 36 36 35 36 36 36 37 37 38 38 40 42 44 45 46 46 46 45 43 42 42 41 40 39
38 36 35 35 34 33 33 33 33 34 34 33 34 35 35 35 34 35 34 35 35 36 37 38 40 42 43 44 45 45 44 44 43 42 41 39 38 37
37 36 35 34 33 33 33 33 33 33 33 34 34 34 34 33 32 32 33 33 34 35 36 38 39 41 41 43 44 43 43 42 42 41 40 38 36 34
36 34 34 34 33 32 31 31 31 31 32 32 32 32 33 32 31 31 32 34 35 35 36 37 38 39 40 41 42 42 42 41 41 39 38 35 33 32
36 35 35 34 33 32 31 31 31 31 31 30 30 30 30 29 30 31 32 33 34 34 35 36 37 37 39 40 41 41 40 40 39 37 35 33 31 30
35 34 34 34 32 32 32 33 32 31 30 30 30 29 28 28 29 30 31 31 32 33 33 35 35 37 39 39 39 39 39 39 37 35 33 31 30 28
35 34 33 34 33 32 32 32 31 29 29 30 29 27 27 27 29 30 30 30 31 32 32 33 35 36 37 36 37 38 38 37 35 33 31 30 29 27
33 33 32 32 32 31 30 30 29 29 29 28 27 26 26 27 28 29 29 29 30 30 31 32 33 34 34 34 36 36 35 34 33 31 30 29 28 27
32 32 31 31 30 30 29 29 28 28 27 26 25 25 25 26 27 27 27 27 28 29 29 30 31 31 32 33 34 34 33 32 31 30 29 28 27 27
31 30 30 29 28 28 28 28 27 26 25 24 23 23 24 25 25 25 26 27 27 27 28 28 29 29 30 31 31 32 32 31 30 29 28 28 27 27
31 30 29 28 27 27 26 26 25 25 24 23 23 22 23 23 24 24 24 25 25 25 25 26 27 28 28 29 30 30 31 30 29 28 28 27 27 26
30 30 28 26 26 25 24 24 23 23 23 21 20 20 21 22 22 22 22 22 22 23 23 24 26 26 26 27 28 29 29 30 29 29 28 28 27 26
Wind_Direction
248 251 254 257 260 263 267 269 272 275 280 284 287 290 294 297 300 303 305 308 311 313 314 316 317 318 319 319 321 322 322 323 324 323 323 323 323 322
248 251 253 256 259 264 267 271 273 277 281 284 287 291 294 297 300 303 305 308 311 313 315 316 317 318 319 320 321 322 323 324 324 324 324 324 324 323
249 252 253 255 259 263 267 271 274 278 281 284 288 291 294 297 301 303 306 308 311 313 315 317 317 318 319 321 321 323 324 324 325 325 325 325 325 324
248 252 254 256 260 264 267 271 274 278 281 284 288 292 294 298 301 303 305 309 312 314 316 317 318 319 320 321 323 324 325 325 326 326 326 326 326 325
247 251 253 256 260 264 267 270 273 276 280 284 289 292 295 297 300 304 307 310 313 314 316 317 319 320 321 322 324 325 326 326 326 327 326 326 326 327
247 250 253 257 260 263 266 269 273 276 280 284 289 292 295 299 302 305 308 309 312 315 316 318 320 321 322 323 324 326 326 326 326 327 327 327 327 328
247 249 252 256 260 262 265 269 273 276 280 285 289 291 295 299 302 305 307 309 312 315 317 318 320 322 323 323 325 326 327 327 327 328 328 329 329 330
247 248 251 255 259 263 265 268 272 276 281 285 288 291 296 299 302 305 307 309 312 315 317 319 321 323 323 323 325 326 327 328 328 329 330 330 331 331
246 249 252 256 258 262 265 268 272 277 281 284 288 292 296 299 301 304 307 310 313 316 318 320 321 323 324 323 325 327 328 328 329 329 330 331 331 332
245 249 252 255 258 261 264 268 273 276 279 284 289 293 296 299 302 305 307 310 313 316 318 319 321 323 325 325 326 328 328 328 328 329 330 331 331 332
244 248 252 254 257 260 263 268 272 275 279 284 290 293 296 299 303 305 308 311 313 315 317 319 321 323 324 326 327 328 328 328 329 329 330 331 331 332
245 248 249 252 256 259 263 267 270 274 278 284 288 292 296 298 301 304 307 310 312 314 317 319 321 323 325 326 328 328 328 329 329 330 330 331 332 333
246 247 249 252 255 259 263 268 270 274 278 282 286 290 294 296 300 304 307 310 311 313 316 319 321 324 326 328 329 329 329 330 330 331 331 331 332 333
244 246 249 251 255 259 263 267 269 273 277 281 286 290 293 295 299 303 306 309 311 313 315 318 322 324 327 329 331 331 331 332 332 332 332 332 333 334
241 243 246 249 253 258 263 266 270 274 278 282 286 289 291 293 297 301 306 309 311 313 316 319 321 324 327 330 331 331 332 333 334 333 333 333 334 335
240 243 247 250 254 258 262 266 271 275 279 282 285 288 290 291 296 301 305 308 311 313 316 320 323 325 328 330 332 332 334 334 335 335 335 335 335 336
241 243 248 251 254 256 261 265 269 273 277 282 284 287 289 291 296 300 304 307 310 313 317 320 324 326 329 330 332 334 334 335 336 337 338 338 339 338
242 244 248 251 253 257 261 263 266 271 277 282 283 286 289 291 294 297 301 305 310 313 316 320 323 326 330 331 333 334 335 336 337 339 340 340 340 339
242 245 249 251 253 256 258 262 265 271 276 279 281 283 286 289 293 296 300 303 309 313 317 320 323 326 330 332 334 336 337 338 340 341 341 341 340 339
241 243 246 248 252 254 257 260 264 270 274 277 279 281 284 289 293 298 301 304 309 313 316 320 324 328 331 334 336 338 340 341 342 342 342 343 342 340
237 241 245 246 249 253 256 259 263 267 271 274 275 278 283 287 291 296 300 305 310 313 316 320 325 329 332 335 339 341 342 343 344 343 343 344 343 342
236 239 241 244 246 250 254 259 262 263 267 269 274 277 282 286 290 294 299 305 311 315 319 323 327 330 333 336 340 342 343 344 345 345 345 346 346 346
233 235 238 242 246 249 253 256 260 264 266 268 271 275 281 287 291 293 298 306 311 316 320 324 328 330 333 337 340 342 344 345 345 345 346 346 347 347
Height
5715 5717 5720 5721 5723 5723 5724 5724 5724 5723 5722 5720 5717 5714 5711 5707 5703 5698 5693 5688 5682 5675 5668 5660 5652 5643 5634 5624 5614 5604 5594 5585 5575 5565 5556 5547 5539 5530
5705 5708 5711 5713 5714 5715 5715 5716 5715 5714 5713 5712 5709 5706 5703 5699 5695 5690 5685 5679 5673 5667 5659 5651 5643 5634 5624 5615 5605 5595 5585 5576 5566 5557 5548 5539 5530 5521
5696 5699 5702 5703 5705 5706 5707 5707 5707 5706 5705 5703 5701 5698 5694 5691 5686 5682 5676 5671 5664 5658 5650 5642 5633 5624 5615 5606 5596 5586 5577 5568 5558 5549 5539 5531 5522 5513
5687 5690 5693 5695 5697 5698 5699 5699 5698 5697 5696 5695 5693 5690 5686 5682 5678 5673 5668 5662 5656 5648 5641 5633 5624 5615 5606 5597 5587 5578 5569 5560 5551 5542 5532 5524 5515 5505
5678 5681 5684 5686 5688 5689 5690 5690 5690 5689 5687 5686 5684 5681 5678 5674 5670 5664 5659 5653 5647 5639 5632 5624 5615 5606 5597 5588 5579 5570 5562 5553 5544 5534 5525 5516 5507 5497
5669 5672 5675 5678 5679 5680 5681 5681 5681 5680 5679 5678 5676 5673 5670 5666 5661 5656 5650 5645 5638 5631 5623 5615 5607 5598 5589 5580 5572 5564 5555 5546 5536 5527 5518 5508 5499 5490
5660 5664 5667 5669 5670 5671 5672 5673 5672 5672 5671 5669 5667 5665 5661 5657 5653 5648 5642 5636 5629 5622 5614 5607 5599 5591 5582 5573 5565 5556 5547 5539 5529 5520 5510 5501 5492 5483
5651 5654 5657 5659 5661 5662 5663 5664 5664 5663 5662 5661 5659 5656 5653 5649 5644 5639 5634 5628 5622 5615 5607 5599 5591 5583 5575 5567 5558 5550 5541 5531 5522 5513 5504 5495 5486 5477
5642 5645 5648 5650 5652 5654 5655 5655 5655 5655 5654 5652 5650 5648 5645 5641 5636 5631 5625 5619 5613 5606 5599 5591 5584 5576 5568 5560 5552 5543 5534 5525 5516 5507 5498 5489 5480 5472
5632 5635 5639 5641 5643 5645 5646 5646 5646 5646 5646 5644 5642 5639 5636 5632 5628 5623 5617 5611 5605 5598 5591 5584 5577 5570 5562 5553 5545 5536 5527 5518 5509 5500 5492 5483 5474 5466
5623 5626 5629 5632 5634 5636 5637 5637 5638 5638 5637 5635 5633 5631 5627 5623 5619 5614 5609 5604 5598 5591 5585 5578 5571 5563 5555 5547 5539 5530 5520 5511 5503 5494 5485 5477 5469 5461
5614 5617 5620 5622 5625 5626 5628 5628 5629 5629 5628 5626 5625 5622 5619 5615 5611 5607 5602 5597 5591 5585 5578 5572 5565 5557 5550 5541 5532 5523 5514 5505 5496 5488 5480 5471 5464 5456
5604 5608 5611 5613 5616 5617 5619 5619 5620 5620 5619 5617 5615 5613 5610 5606 5603 5599 5594 5589 5584 5578 5572 5565 5558 5550 5542 5534 5526 5517 5508 5499 5490 5482 5474 5466 5458 5451
5595 5599 5602 5605 5607 5609 5610 5611 5611 5610 5610 5608 5606 5604 5602 5598 5595 5591 5587 5582 5577 5571 5565 5558 5552 5544 5536 5528 5520 5511 5502 5493 5484 5476 5468 5461 5453 5447
5585 5590 5593 5596 5598 5599 5601 5601 5601 5601 5601 5599 5598 5596 5593 5591 5587 5584 5580 5575 5570 5564 5558 5552 5545 5538 5531 5523 5514 5506 5497 5488 5480 5471 5463 5456 5449 5442
5576 5580 5583 5586 5588 5590 5592 5592 5592 5592 5592 5591 5589 5587 5585 5582 5580 5576 5572 5568 5563 5558 5552 5546 5539 5532 5525 5517 5508 5500 5492 5484 5475 5467 5459 5452 5445 5439
5567 5570 5574 5577 5579 5581 5582 5583 5584 5584 5583 5582 5581 5579 5577 5574 5572 5569 5565 5561 5557 5551 5546 5540 5533 5526 5519 5511 5503 5495 5487 5479 5471 5463 5456 5449 5442 5436
5558 5562 5565 5568 5570 5572 5573 5574 5575 5575 5575 5574 5573 5571 5569 5567 5565 5562 5558 5554 5550 5545 5539 5534 5528 5521 5514 5506 5499 5490 5482 5474 5467 5460 5453 5446 5440 5434
5549 5553 5557 5559 5562 5563 5565 5566 5567 5567 5567 5566 5564 5563 5562 5560 5557 5554 5551 5548 5543 5539 5533 5528 5522 5515 5509 5502 5494 5486 5478 5471 5463 5457 5450 5444 5437 5431
5541 5545 5548 5551 5553 5555 5556 5557 5558 5559 5558 5558 5557 5556 5554 5553 5550 5548 5545 5541 5537 5533 5528 5522 5517 5511 5504 5498 5491 5483 5475 5468 5461 5454 5448 5441 5435 5429
5533 5536 5539 5542 5545 5547 5548 5549 5550 5551 5551 5550 5550 5549 5548 5546 5544 5541 5539 5535 5531 5527 5523 5517 5512 5506 5500 5494 5487 5479 5472 5465 5458 5452 5446 5440 5433 5427
5524 5528 5531 5534 5537 5539 5540 5541 5542 5543 5543 5543 5543 5542 5541 5539 5538 5535 5532 5529 5526 5522 5517 5512 5507 5502 5496 5490 5483 5476 5470 5463 5456 5450 5444 5438 5431 5425
5516 5520 5523 5526 5529 5531 5533 5534 5535 5535 5536 5536 5536 5536 5535 5533 5531 5529 5527 5524 5520 5517 5513 5508 5503 5498 5492 5486 5480 5474 5467 5461 5455 5448 5442 5436 5430 5424